• Join FlightAware (Why Join?)
  • Login
  • US Flag 
11:59PM EDT


 

Airport Tracker/Info


-or-


 

Live Flight TrackerFlight Track Log ✈ EJA922 ✈ 15-Aug-2013 ✈ KIXD - KTYS

Flight Track Log - Related Links

Times and Time Zones

All times are in EDT time to prevent confusion due to time zone crossing. See the EJA922 flight status page for this flight to view local times or setup timezone preferences in your user account.

Time Position Orientation Groundspeed Altitude Reporting Facility
EDT Latitude Longitude Course Direction KTS MPH feet Rate Location/Type
11:03AM 38.8167 -94.9000 142° Southeast 170 196 1,800  Level Kansas City TRACON
11:04AM 38.7833 -94.8667 142° Southeast 205 236 2,900 2,460 Climbing Kansas City TRACON
11:05AM 38.7667 -94.8167 113° Southeast 243 280 5,500 2,820 Climbing Kansas City TRACON
11:06AM 38.7672 -94.7367 89° East 252 290 8,000 2,460 Climbing Kansas City Center
11:07AM 38.8125 -94.6556 54° Northeast 291 335 10,400 2,040 Climbing Kansas City Center
11:08AM 38.8747 -94.5414 55° Northeast 350 403 12,200 1,920 Climbing Kansas City Center
11:09AM 38.9331 -94.4325 55° Northeast 383 441 14,400 2,160 Climbing Kansas City Center
11:10AM 39.0039 -94.3014 55° Northeast 398 458 16,800 2,040 Climbing Kansas City Center
11:11AM 39.0650 -94.1861 56° Northeast 406 467 18,600 2,040 Climbing Kansas City Center
11:12AM 39.0919 -94.0286 78° East 416 479 21,100 2,100 Climbing Kansas City Center
11:13AM 39.0806 -93.8847 96° East 421 484 23,000 1,740 Climbing Kansas City Center
11:14AM 39.0703 -93.7392 95° East 427 491 24,800 1,680 Climbing Kansas City Center
11:15AM 39.0586 -93.5644 95° East 438 504 26,600 1,620 Climbing Kansas City Center
11:16AM 39.0469 -93.3944 95° East 446 513 28,200 1,440 Climbing Kansas City Center
11:17AM 39.0367 -93.2461 95° East 461 531 29,600 1,500 Climbing Kansas City Center
11:18AM 39.0233 -93.0461 95° East 470 541 31,400 1,560 Climbing Kansas City Center
11:19AM 39.0097 -92.8772 96° East 477 549 32,900 1,380 Climbing Kansas City Center
11:20AM 38.9669 -92.7158 109° East 494 568 34,300 1,380 Climbing Kansas City Center
11:21AM 38.9139 -92.5464 112° Southeast 504 580 35,800 1,260 Climbing Kansas City Center
11:22AM 38.8422 -92.3414 114° Southeast 515 593 37,000 540 Climbing Kansas City Center
11:23AM 38.7558 -92.1811 125° Southeast 539 620 37,000  Level Kansas City Center
11:24AM 38.6714 -92.0269 125° Southeast 535 616 37,000  Level Kansas City Center
11:25AM 38.5903 -91.8753 124° Southeast 526 605 37,000  Level Kansas City Center
11:26AM 38.5083 -91.7275 125° Southeast 516 594 37,000  Level Kansas City Center
11:27AM 38.4281 -91.5803 125° Southeast 507 583 37,000  Level Kansas City Center
11:28AM 38.3475 -91.4322 125° Southeast 505 581 37,000  Level Kansas City Center
11:29AM 38.2533 -91.2642 125° Southeast 509 586 37,000  Level Kansas City Center
11:30AM 38.1697 -91.1150 125° Southeast 517 595 37,000  Level Kansas City Center
11:32AM 38.0869 -90.9661 125° Southeast 519 597 37,000  Level Kansas City Center
11:33AM 38.0022 -90.8161 126° Southeast 524 603 37,000  Level Kansas City Center
11:34AM 37.9183 -90.6675 126° Southeast 524 603 37,000  Level Kansas City Center
11:35AM 37.8164 -90.4883 126° Southeast 525 604 37,000  Level Kansas City Center
11:36AM 37.7314 -90.3383 126° Southeast 528 608 37,000  Level Kansas City Center
11:37AM 37.6506 -90.1861 124° Southeast 525 604 37,000  Level Kansas City Center
11:38AM 37.5769 -90.0022 117° Southeast 525 604 37,000  Level Kansas City Center
11:39AM 37.5094 -89.8364 117° Southeast 529 609 37,000  Level Kansas City Center
11:40AM 37.4417 -89.6719 117° Southeast 529 609 37,000  Level Kansas City Center
11:41AM 37.3733 -89.5103 118° Southeast 525 604 37,000  Level Kansas City Center
11:42AM 37.3069 -89.3531 118° Southeast 518 596 37,000  Level Memphis Center
11:43AM 37.2389 -89.1897 118° Southeast 518 596 37,000  Level Memphis Center
11:44AM 37.1728 -89.0292 117° Southeast 518 596 37,000  Level Memphis Center
11:45AM 37.1042 -88.8692 118° Southeast 518 596 37,000  Level Memphis Center
11:46AM 37.0356 -88.7067 118° Southeast 518 596 37,000  Level Memphis Center
11:47AM 36.9667 -88.5472 118° Southeast 512 589 37,000  Level Memphis Center
11:48AM 36.8953 -88.3853 119° Southeast 517 595 37,000  Level Memphis Center
11:49AM 36.8217 -88.2108 118° Southeast 517 595 37,000  Level Memphis Center
11:50AM 36.7478 -88.0472 119° Southeast 517 595 37,000  Level Memphis Center
11:51AM 36.6758 -87.8864 119° Southeast 522 601 37,000  Level Memphis Center
11:52AM 36.6058 -87.7256 118° Southeast 527 606 37,000  Level Memphis Center
11:53AM 36.5336 -87.5678 120° Southeast 524 603 37,000 -480 Level Memphis Center
11:54AM 36.4611 -87.4053 119° Southeast 530 610 36,100 -1,020 Descending Memphis Center
11:55AM 36.3883 -87.2428 119° Southeast 530 610 35,000 -1,020 Descending Memphis Center
11:56AM 36.3156 -87.0833 119° Southeast 530 610 34,100 -1,200 Descending Memphis Center
11:57AM 36.2669 -86.9053 109° East 535 616 32,700 -1,500 Descending Memphis Center
11:58AM 36.2447 -86.7106 98° East 542 624 31,200 -1,500 Descending Memphis Center
11:59AM 36.2264 -86.5236 97° East 542 624 29,700 -1,500 Descending Memphis Center
12:00PM 36.2061 -86.3392 98° East 547 629 28,200 -1,500 Descending Memphis Center
12:01PM 36.1878 -86.1628 97° East 528 608 26,700 -1,500 Descending Memphis Center
12:02PM 36.1672 -85.9889 98° East 516 594 25,300 -1,380 Descending Memphis Center
12:04PM 36.1328 -85.6814 98° East 489 563 22,700 -1,380 Descending Atlanta Center
12:05PM 36.1139 -85.5244 98° East 474 545 21,400 -1,320 Descending Atlanta Center
12:06PM 36.0928 -85.3647 99° East 469 540 20,100 -1,200 Descending Atlanta Center
12:07PM 36.0736 -85.2075 99° East 464 534 19,000 -960 Descending Atlanta Center
12:08PM 36.0522 -85.0378 99° East 464 534 18,200 -1,320 Descending Atlanta Center
12:09PM 36.0344 -84.8886 98° East 453 521 16,400 -1,980 Descending Atlanta Center
12:10PM 36.0144 -84.7447 100° East 440 506 14,300 -2,100 Descending Atlanta Center
12:11PM 35.9986 -84.6058 98° East 419 482 12,200 -1,800 Descending Atlanta Center
12:12PM 35.9825 -84.4878 100° East 385 443 10,800 -1,200 Descending Atlanta Center
12:13PM 35.9597 -84.3850 105° East 344 396 9,900 -1,500 Descending Atlanta Center
12:14PM 35.9014 -84.3283 142° Southeast 271 312 7,800 -2,100 Descending Atlanta Center
12:15PM 35.8475 -84.2822 145° Southeast 259 298 5,700 -1,800 Descending Atlanta Center
12:16PM 35.7953 -84.2383 146° Southeast 237 273 4,200 -1,260 Descending Atlanta Center
12:17PM 35.7619 -84.1794 125° Southeast 218 251 3,200 -780 Descending Atlanta Center
12:18PM 35.7411 -84.1156 112° Southeast 202 232 2,700 -540 Descending Atlanta Center
12:19PM 35.7558 -84.0617 71° East 152 175 2,200 -540 Descending Atlanta Center